| time (UTC) | temp F | wind direction | speed MPH | gust MPH | rain 1hr in | rain 24hr in | rain mn in | humidity % | barometer mb |
| 20260903095306 | 60 | 137 | 6.0 | 9.0 | 0.00 | 0.00 | 0.00 | 49 | 1028.1 |
| 20260903094802 | 60 | 187 | 5.0 | 8.0 | 0.00 | 0.00 | 0.00 | 49 | 1028.1 |
| 20260903094303 | 60 | 225 | 4.0 | 7.0 | 0.00 | 0.00 | 0.00 | 49 | 1028.0 |
| 20260903093302 | 61 | 45 | 0.0 | 2.0 | 0.00 | 0.00 | 0.00 | 48 | 1028.1 |
| 20260903092802 | 61 | 45 | 2.0 | 6.0 | 0.00 | 0.00 | 0.00 | 49 | 1028.1 |
| 20260903092306 | 61 | 342 | 5.0 | 7.0 | 0.00 | 0.00 | 0.00 | 49 | 1028.0 |
| 20260903091802 | 61 | 67 | 1.0 | 5.0 | 0.00 | 0.00 | 0.00 | 48 | 1028.4 |
| 20260903091303 | 62 | 45 | 3.0 | 5.0 | 0.00 | 0.00 | 0.00 | 48 | 1028.1 |
| 20260903090803 | 62 | 270 | 1.0 | 8.0 | 0.00 | 0.00 | 0.00 | 47 | 1028.1 |
| 20260903090303 | 62 | 181 | 3.0 | 8.0 | 0.00 | 0.00 | 0.00 | 47 | 1028.1 |
| 20260903085803 | 62 | 45 | 5.0 | 9.0 | 0.00 | 0.00 | 0.00 | 47 | 1028.1 |
| 20260903085305 | 62 | 0 | 2.0 | 7.0 | 0.00 | 0.00 | 0.00 | 47 | 1028.4 |
| 20260903084803 | 62 | 270 | 2.0 | 3.0 | 0.00 | 0.00 | 0.00 | 48 | 1028.4 |
| 20260903084302 | 61 | 315 | 1.0 | 3.0 | 0.00 | 0.00 | 0.00 | 48 | 1028.4 |
| 20260903083803 | 61 | 170 | 5.0 | 7.0 | 0.00 | 0.00 | 0.00 | 48 | 1028.4 |
| 20260903083302 | 61 | 225 | 2.0 | 3.0 | 0.00 | 0.00 | 0.00 | 48 | 1028.4 |
| 20260903082803 | 61 | 45 | 3.0 | 5.0 | 0.00 | 0.00 | 0.00 | 48 | 1028.4 |
| 20260903082306 | 61 | 0 | 3.0 | 6.0 | 0.00 | 0.00 | 0.00 | 48 | 1028.4 |
| 20260903081802 | 61 | 315 | 2.0 | 5.0 | 0.00 | 0.00 | 0.00 | 47 | 1028.4 |
| 20260903081303 | 61 | 0 | 5.0 | 7.0 | 0.00 | 0.00 | 0.00 | 48 | 1028.4 |
| 20260903080803 | 60 | 10 | 3.0 | 6.0 | 0.00 | 0.00 | 0.00 | 49 | 1028.4 |
| 20260903080302 | 60 | 225 | 3.0 | 6.0 | 0.00 | 0.00 | 0.00 | 49 | 1028.4 |
| 20260903075803 | 60 | 0 | 3.0 | 10.0 | 0.00 | 0.00 | 0.00 | 49 | 1028.4 |
| 20260903075306 | 61 | 348 | 6.0 | 8.0 | 0.00 | 0.00 | 0.00 | 48 | 1028.1 |
| 20260903074302 | 61 | 22 | 5.0 | 6.0 | 0.00 | 0.00 | 0.00 | 48 | 1028.4 |
| 20260903073303 | 61 | 337 | 6.0 | 9.0 | 0.00 | 0.00 | 0.00 | 47 | 1028.4 |
| 20260903072306 | 61 | 105 | 9.0 | 14.0 | 0.00 | 0.00 | 0.00 | 47 | 1028.4 |
| 20260903071303 | 62 | 358 | 7.0 | 12.0 | 0.00 | 0.00 | 0.00 | 45 | 1028.1 |
| 20260903070303 | 63 | 40 | 5.0 | 10.0 | 0.00 | 0.00 | 0.00 | 44 | 1028.4 |
| 20260903065802 | 63 | 45 | 7.0 | 14.0 | 0.00 | 0.00 | 0.00 | 44 | 1028.4 |
| 20260903065305 | 63 | 45 | 7.0 | 8.0 | 0.00 | 0.00 | 0.00 | 44 | 1028.1 |
| 20260903064803 | 62 | 90 | 6.0 | 13.0 | 0.00 | 0.00 | 0.00 | 45 | 1028.4 |
| 20260903064302 | 62 | 225 | 4.0 | 8.0 | 0.00 | 0.00 | 0.00 | 45 | 1028.4 |
| 20260903063803 | 62 | 121 | 4.0 | 9.0 | 0.00 | 0.00 | 0.00 | 44 | 1028.4 |
| 20260903063303 | 62 | 258 | 5.0 | 9.0 | 0.00 | 0.00 | 0.00 | 44 | 1028.4 |
| 20260903062802 | 63 | 63 | 9.0 | 15.0 | 0.00 | 0.00 | 0.00 | 44 | 1028.1 |
| 20260903062306 | 63 | 178 | 3.0 | 12.0 | 0.00 | 0.00 | 0.00 | 43 | 1028.4 |
| 20260903061802 | 63 | 41 | 12.0 | 15.0 | 0.00 | 0.00 | 0.00 | 43 | 1027.8 |
| 20260903061302 | 63 | 88 | 10.0 | 17.0 | 0.00 | 0.00 | 0.00 | 43 | 1028.1 |
| 20260903060857 | 64 | 90 | 6.0 | 10.0 | 0.00 | 0.00 | 0.00 | 42 | 1028.4 |
| 20260903060302 | 64 | 169 | 3.0 | 7.0 | 0.00 | 0.00 | 0.00 | 42 | 1028.4 |
| 20260903055802 | 64 | 109 | 3.0 | 8.0 | 0.00 | 0.00 | 0.00 | 42 | 1028.1 |
| 20260903055306 | 64 | 116 | 3.0 | 25.0 | 0.00 | 0.00 | 0.00 | 42 | 1028.4 |
| 20260903054302 | 64 | 196 | 5.0 | 9.0 | 0.00 | 0.00 | 0.00 | 42 | 1028.1 |
| 20260903053803 | 64 | 213 | 11.0 | 20.0 | 0.00 | 0.00 | 0.00 | 42 | 1028.4 |
| 20260903053303 | 64 | 169 | 4.0 | 9.0 | 0.00 | 0.00 | 0.00 | 42 | 1028.4 |
| 20260903052803 | 64 | 240 | 12.0 | 17.0 | 0.00 | 0.00 | 0.00 | 42 | 1028.4 |
| 20260903052306 | 64 | 283 | 3.0 | 22.0 | 0.00 | 0.00 | 0.00 | 42 | 1028.4 |
| 20260903051803 | 64 | 246 | 13.0 | 20.0 | 0.00 | 0.00 | 0.00 | 42 | 1028.4 |
| 20260903051302 | 64 | 226 | 6.0 | 14.0 | 0.00 | 0.00 | 0.00 | 42 | 1028.7 |
| 20260903050803 | 64 | 269 | 9.0 | 17.0 | 0.00 | 0.00 | 0.00 | 42 | 1028.4 |
| 20260903050303 | 64 | 251 | 4.0 | 12.0 | 0.00 | 0.00 | 0.00 | 42 | 1028.4 |
| 20260903045803 | 64 | 230 | 7.0 | 12.0 | 0.00 | 0.00 | 0.00 | 42 | 1028.7 |
| 20260903045306 | 63 | 230 | 6.0 | 10.0 | 0.00 | 0.00 | 0.00 | 43 | 1028.4 |
| 20260903044803 | 63 | 237 | 7.0 | 13.0 | 0.00 | 0.00 | 0.00 | 43 | 1028.7 |
| 20260903044303 | 63 | 272 | 3.0 | 6.0 | 0.00 | 0.00 | 0.00 | 42 | 1028.7 |
| 20260903043803 | 64 | 315 | 3.0 | 9.0 | 0.00 | 0.00 | 0.00 | 41 | 1028.7 |
| 20260903043302 | 64 | 239 | 6.0 | 9.0 | 0.00 | 0.00 | 0.00 | 41 | 1028.7 |
| 20260903042306 | 65 | 235 | 4.0 | 8.0 | 0.00 | 0.00 | 0.00 | 39 | 1028.7 |
| 20260903041802 | 65 | 325 | 3.0 | 9.0 | 0.00 | 0.00 | 0.00 | 38 | 1028.7 |
| 20260903041303 | 65 | 123 | 5.0 | 20.0 | 0.00 | 0.00 | 0.00 | 38 | 1028.7 |
| 20260903040302 | 65 | 248 | 8.0 | 18.0 | 0.00 | 0.00 | 0.00 | 37 | 1028.7 |
| 20260903035803 | 65 | 188 | 6.0 | 17.0 | 0.00 | 0.00 | 0.00 | 37 | 1028.7 |
| 20260903035306 | 65 | 156 | 9.0 | 21.0 | 0.00 | 0.00 | 0.00 | 37 | 1028.5 |
| 20260903034303 | 65 | 249 | 8.0 | 14.0 | 0.00 | 0.00 | 0.00 | 36 | 1028.4 |
| 20260903033803 | 65 | 299 | 2.0 | 9.0 | 0.00 | 0.00 | 0.00 | 36 | 1028.4 |
| 20260903033303 | 66 | 341 | 6.0 | 14.0 | 0.00 | 0.00 | 0.00 | 36 | 1028.4 |
| 20260903032803 | 65 | 353 | 5.0 | 7.0 | 0.00 | 0.00 | 0.00 | 36 | 1028.4 |
| 20260903032305 | 66 | 232 | 5.0 | 8.0 | 0.00 | 0.00 | 0.00 | 35 | 1028.4 |
| 20260903031803 | 66 | 270 | 2.0 | 8.0 | 0.00 | 0.00 | 0.00 | 35 | 1028.4 |
| 20260903030803 | 66 | 191 | 9.0 | 20.0 | 0.00 | 0.00 | 0.00 | 34 | 1028.4 |
| 20260903030303 | 66 | 209 | 6.0 | 9.0 | 0.00 | 0.00 | 0.00 | 34 | 1028.4 |
| 20260903025803 | 66 | 265 | 9.0 | 17.0 | 0.00 | 0.00 | 0.00 | 34 | 1028.4 |
| 20260903025305 | 66 | 212 | 9.0 | 14.0 | 0.00 | 0.00 | 0.00 | 33 | 1028.4 |
| 20260903024802 | 67 | 198 | 10.0 | 15.0 | 0.00 | 0.00 | 0.00 | 32 | 1028.4 |
| 20260903023803 | 67 | 226 | 11.0 | 16.0 | 0.00 | 0.00 | 0.00 | 31 | 1028.1 |
| 20260903023303 | 67 | 225 | 10.0 | 22.0 | 0.00 | 0.00 | 0.00 | 31 | 1028.1 |
| 20260903022803 | 67 | 225 | 7.0 | 13.0 | 0.00 | 0.00 | 0.00 | 31 | 1028.1 |
| 20260903022306 | 67 | 181 | 12.0 | 18.0 | 0.00 | 0.00 | 0.00 | 31 | 1028.1 |
| 20260903021303 | 67 | 171 | 5.0 | 16.0 | 0.00 | 0.00 | 0.00 | 31 | 1028.1 |
| 20260903020803 | 67 | 202 | 6.0 | 9.0 | 0.00 | 0.00 | 0.00 | 31 | 1028.1 |
| 20260903020303 | 67 | 231 | 5.0 | 8.0 | 0.00 | 0.00 | 0.00 | 31 | 1028.1 |
| 20260903015802 | 67 | 220 | 5.0 | 10.0 | 0.00 | 0.00 | 0.00 | 30 | 1028.1 |
| 20260903015305 | 68 | 229 | 8.0 | 16.0 | 0.00 | 0.00 | 0.00 | 30 | 1028.1 |
| 20260903014803 | 67 | 209 | 12.0 | 20.0 | 0.00 | 0.00 | 0.00 | 31 | 1028.0 |
| 20260903014302 | 68 | 225 | 7.0 | 15.0 | 0.00 | 0.00 | 0.00 | 31 | 1027.8 |
| 20260903013303 | 69 | 244 | 9.0 | 17.0 | 0.00 | 0.00 | 0.00 | 29 | 1027.7 |
| 20260903012803 | 69 | 224 | 12.0 | 18.0 | 0.00 | 0.00 | 0.00 | 29 | 1027.7 |
| 20260903012306 | 69 | 242 | 12.0 | 17.0 | 0.00 | 0.00 | 0.00 | 29 | 1027.7 |
| 20260903011803 | 69 | 256 | 11.0 | 16.0 | 0.00 | 0.00 | 0.00 | 28 | 1027.7 |
| 20260903011303 | 69 | 229 | 9.0 | 16.0 | 0.00 | 0.00 | 0.00 | 28 | 1027.5 |
| 20260903010803 | 69 | 240 | 10.0 | 15.0 | 0.00 | 0.00 | 0.00 | 28 | 1027.7 |
| 20260903010302 | 70 | 225 | 11.0 | 16.0 | 0.00 | 0.00 | 0.00 | 27 | 1027.4 |
| 20260903005306 | 70 | 264 | 9.0 | 20.0 | 0.00 | 0.00 | 0.00 | 26 | 1027.4 |
| 20260903004803 | 70 | 225 | 10.0 | 18.0 | 0.00 | 0.00 | 0.00 | 27 | 1027.4 |
| 20260903004303 | 71 | 234 | 10.0 | 14.0 | 0.00 | 0.00 | 0.00 | 27 | 1027.4 |
| 20260903003803 | 72 | 256 | 7.0 | 12.0 | 0.00 | 0.00 | 0.00 | 26 | 1027.4 |
| 20260903003303 | 73 | 225 | 10.0 | 18.0 | 0.00 | 0.00 | 0.00 | 26 | 1027.4 |
| 20260903002803 | 75 | 203 | 5.0 | 9.0 | 0.00 | 0.00 | 0.00 | 24 | 1027.4 |
| 20260903002306 | 76 | 197 | 9.0 | 15.0 | 0.00 | 0.00 | 0.00 | 24 | 1027.3 |
| 20260903001802 | 75 | 172 | 6.0 | 14.0 | 0.00 | 0.00 | 0.00 | 24 | 1027.1 |
| 20260903001303 | 75 | 198 | 6.0 | 13.0 | 0.00 | 0.00 | 0.00 | 24 | 1027.4 |
| 20260903000303 | 75 | 270 | 5.0 | 8.0 | 0.00 | 0.00 | 0.00 | 24 | 1027.1 |
| 20260902235803 | 76 | 270 | 1.0 | 3.0 | 0.00 | 0.00 | 0.00 | 23 | 1027.1 |
| 20260902235305 | 76 | 218 | 6.0 | 12.0 | 0.00 | 0.00 | 0.00 | 23 | 1027.1 |
| 20260902234803 | 75 | 218 | 9.0 | 13.0 | 0.00 | 0.00 | 0.00 | 24 | 1027.1 |
| 20260902234303 | 75 | 190 | 6.0 | 12.0 | 0.00 | 0.00 | 0.00 | 24 | 1027.1 |
| 20260902233802 | 76 | 205 | 9.0 | 18.0 | 0.00 | 0.00 | 0.00 | 23 | 1027.1 |
| 20260902233303 | 75 | 173 | 7.0 | 12.0 | 0.00 | 0.00 | 0.00 | 24 | 1027.3 |
| 20260902232802 | 75 | 252 | 3.0 | 8.0 | 0.00 | 0.00 | 0.00 | 24 | 1027.3 |
| 20260902232306 | 75 | 270 | 4.0 | 7.0 | 0.00 | 0.00 | 0.00 | 24 | 1027.1 |
| 20260902231804 | 76 | 168 | 5.0 | 8.0 | 0.00 | 0.00 | 0.00 | 23 | 1027.4 |
| 20260902230803 | 77 | 174 | 10.0 | 14.0 | 0.00 | 0.00 | 0.00 | 24 | 1027.4 |
| 20260902230303 | 78 | 172 | 3.0 | 9.0 | 0.00 | 0.00 | 0.00 | 23 | 1027.4 |
| 20260902225803 | 77 | 149 | 7.0 | 15.0 | 0.00 | 0.00 | 0.00 | 23 | 1027.4 |
| 20260902224803 | 76 | 225 | 5.0 | 13.0 | 0.00 | 0.00 | 0.00 | 24 | 1027.4 |
| 20260902224303 | 75 | 198 | 11.0 | 17.0 | 0.00 | 0.00 | 0.00 | 25 | 1027.7 |
| 20260902223803 | 75 | 225 | 8.0 | 13.0 | 0.00 | 0.00 | 0.00 | 25 | 1027.7 |
| 20260902222803 | 77 | 218 | 5.0 | 20.0 | 0.00 | 0.00 | 0.00 | 25 | 1027.4 |
| 20260902221803 | 76 | 95 | 4.0 | 8.0 | 0.00 | 0.00 | 0.00 | 26 | 1027.7 |
| 20260902221303 | 76 | 174 | 7.0 | 12.0 | 0.00 | 0.00 | 0.00 | 26 | 1027.7 |
| 20260902220803 | 75 | 228 | 10.0 | 23.0 | 0.00 | 0.00 | 0.00 | 27 | 1027.7 |
| 20260902220303 | 74 | 277 | 9.0 | 18.0 | 0.00 | 0.00 | 0.00 | 27 | 1027.9 |
| 20260902215803 | 74 | 270 | 5.0 | 13.0 | 0.00 | 0.00 | 0.00 | 27 | 1027.7 |
| 20260902215306 | 75 | 241 | 7.0 | 17.0 | 0.00 | 0.00 | 0.00 | 26 | 1028.1 |
| 20260902214303 | 76 | 224 | 12.0 | 20.0 | 0.00 | 0.00 | 0.00 | 27 | 1028.1 |
| 20260902213803 | 76 | 296 | 6.0 | 12.0 | 0.00 | 0.00 | 0.00 | 26 | 1028.1 |
| 20260902213303 | 77 | 195 | 5.0 | 15.0 | 0.00 | 0.00 | 0.00 | 26 | 1028.1 |
| 20260902212803 | 76 | 182 | 9.0 | 17.0 | 0.00 | 0.00 | 0.00 | 27 | 1028.3 |
| 20260902212305 | 75 | 180 | 13.0 | 16.0 | 0.00 | 0.00 | 0.00 | 28 | 1028.1 |
| 20260902211803 | 74 | 309 | 7.0 | 12.0 | 0.00 | 0.00 | 0.00 | 28 | 1028.1 |
| 20260902211303 | 74 | 134 | 2.0 | 9.0 | 0.00 | 0.00 | 0.00 | 28 | 1028.1 |
| 20260902210803 | 74 | 211 | 10.0 | 15.0 | 0.00 | 0.00 | 0.00 | 29 | 1028.4 |
| 20260902205803 | 73 | 307 | 8.0 | 14.0 | 0.00 | 0.00 | 0.00 | 30 | 1028.4 |
| 20260902205306 | 73 | 278 | 6.0 | 14.0 | 0.00 | 0.00 | 0.00 | 30 | 1028.4 |
| 20260902204803 | 73 | 311 | 9.0 | 13.0 | 0.00 | 0.00 | 0.00 | 30 | 1028.4 |
| 20260902204303 | 73 | 190 | 7.0 | 20.0 | 0.00 | 0.00 | 0.00 | 30 | 1028.7 |
| 20260902203303 | 73 | 226 | 13.0 | 21.0 | 0.00 | 0.00 | 0.00 | 30 | 1028.5 |
| 20260902202803 | 73 | 218 | 10.0 | 18.0 | 0.00 | 0.00 | 0.00 | 30 | 1028.4 |
| 20260902202306 | 73 | 220 | 10.0 | 26.0 | 0.00 | 0.00 | 0.00 | 30 | 1028.7 |
| 20260902201803 | 72 | 207 | 18.0 | 30.0 | 0.00 | 0.00 | 0.00 | 31 | 1028.7 |
| 20260902201303 | 73 | 230 | 13.0 | 23.0 | 0.00 | 0.00 | 0.00 | 31 | 1028.8 |
| 20260902200803 | 72 | 233 | 11.0 | 24.0 | 0.00 | 0.00 | 0.00 | 31 | 1029.1 |
| 20260902200303 | 73 | 266 | 12.0 | 26.0 | 0.00 | 0.00 | 0.00 | 31 | 1028.7 |
| 20260902195803 | 74 | 253 | 8.0 | 14.0 | 0.00 | 0.00 | 0.00 | 31 | 1029.1 |
| 20260902195306 | 73 | 213 | 10.0 | 18.0 | 0.00 | 0.00 | 0.00 | 32 | 1029.1 |
| 20260902194803 | 72 | 231 | 9.0 | 17.0 | 0.00 | 0.00 | 0.00 | 32 | 1028.8 |
| 20260902194304 | 71 | 201 | 11.0 | 17.0 | 0.00 | 0.00 | 0.00 | 32 | 1029.1 |
| 20260902192803 | 72 | 233 | 12.0 | 21.0 | 0.00 | 0.00 | 0.00 | 31 | 1029.1 |
| 20260902192306 | 72 | 214 | 9.0 | 15.0 | 0.00 | 0.00 | 0.00 | 33 | 1029.4 |
| 20260902191803 | 72 | 231 | 7.0 | 13.0 | 0.00 | 0.00 | 0.00 | 33 | 1029.1 |
| 20260902191303 | 72 | 257 | 9.0 | 13.0 | 0.00 | 0.00 | 0.00 | 32 | 1029.1 |
| 20260902190803 | 73 | 204 | 2.0 | 6.0 | 0.00 | 0.00 | 0.00 | 32 | 1029.1 |
| 20260902190303 | 72 | 161 | 5.0 | 12.0 | 0.00 | 0.00 | 0.00 | 33 | 1029.1 |
| 20260902185803 | 71 | 208 | 6.0 | 18.0 | 0.00 | 0.00 | 0.00 | 33 | 1029.3 |
| 20260902185306 | 70 | 242 | 4.0 | 18.0 | 0.00 | 0.00 | 0.00 | 33 | 1029.4 |
| 20260902184803 | 71 | 221 | 6.0 | 13.0 | 0.00 | 0.00 | 0.00 | 33 | 1029.7 |
| 20260902184303 | 72 | 281 | 13.0 | 18.0 | 0.00 | 0.00 | 0.00 | 32 | 1029.4 |
| 20260902183803 | 71 | 200 | 11.0 | 22.0 | 0.00 | 0.00 | 0.00 | 33 | 1029.5 |
| 20260902182803 | 70 | 266 | 9.0 | 20.0 | 0.00 | 0.00 | 0.00 | 35 | 1029.8 |
| 20260902182306 | 69 | 253 | 13.0 | 18.0 | 0.00 | 0.00 | 0.00 | 35 | 1029.8 |
| 20260902181803 | 69 | 203 | 7.0 | 23.0 | 0.00 | 0.00 | 0.00 | 36 | 1029.8 |
| 20260902181303 | 70 | 265 | 13.0 | 21.0 | 0.00 | 0.00 | 0.00 | 35 | 1029.8 |
| 20260902180803 | 70 | 222 | 12.0 | 22.0 | 0.00 | 0.00 | 0.00 | 36 | 1029.8 |
| 20260902180303 | 69 | 268 | 10.0 | 20.0 | 0.00 | 0.00 | 0.00 | 36 | 1030.0 |
| 20260902175802 | 69 | 271 | 14.0 | 24.0 | 0.00 | 0.00 | 0.00 | 36 | 1029.8 |
| 20260902175307 | 69 | 256 | 15.0 | 26.0 | 0.00 | 0.00 | 0.00 | 36 | 1030.0 |
| 20260902174803 | 69 | 281 | 16.0 | 26.0 | 0.00 | 0.00 | 0.00 | 36 | 1030.0 |
| 20260902174303 | 69 | 258 | 12.0 | 20.0 | 0.00 | 0.00 | 0.00 | 36 | 1030.1 |
| 20260902173803 | 69 | 243 | 14.0 | 20.0 | 0.00 | 0.00 | 0.00 | 36 | 1030.1 |
| 20260902172803 | 68 | 266 | 16.0 | 25.0 | 0.00 | 0.00 | 0.00 | 36 | 1029.9 |
| 20260902172308 | 68 | 232 | 15.0 | 24.0 | 0.00 | 0.00 | 0.00 | 36 | 1030.1 |
| 20260902171803 | 68 | 271 | 15.0 | 21.0 | 0.00 | 0.00 | 0.00 | 36 | 1030.1 |
| 20260902171302 | 68 | 226 | 14.0 | 22.0 | 0.00 | 0.00 | 0.00 | 37 | 1030.1 |
| 20260902170802 | 68 | 238 | 14.0 | 22.0 | 0.00 | 0.00 | 0.00 | 37 | 1030.1 |
| 20260902170303 | 68 | 247 | 14.0 | 24.0 | 0.00 | 0.00 | 0.00 | 37 | 1030.1 |
| 20260902165804 | 68 | 253 | 15.0 | 24.0 | 0.00 | 0.00 | 0.00 | 36 | 1030.1 |
| 20260902165308 | 69 | 243 | 12.0 | 32.0 | 0.00 | 0.00 | 0.00 | 37 | 1030.1 |
| 20260902164803 | 68 | 225 | 10.0 | 20.0 | 0.00 | 0.00 | 0.00 | 36 | 1030.1 |
| 20260902164303 | 67 | 225 | 7.0 | 20.0 | 0.00 | 0.00 | 0.00 | 37 | 1030.4 |
| 20260902163303 | 68 | 225 | 9.0 | 26.0 | 0.00 | 0.00 | 0.00 | 37 | 1030.1 |
| 20260902162803 | 67 | 214 | 11.0 | 18.0 | 0.00 | 0.00 | 0.00 | 38 | 1030.1 |
| 20260902162306 | 67 | 228 | 4.0 | 15.0 | 0.00 | 0.00 | 0.00 | 39 | 1030.1 |
| 20260902161803 | 67 | 271 | 7.0 | 14.0 | 0.00 | 0.00 | 0.00 | 39 | 1030.1 |
| 20260902161303 | 67 | 257 | 12.0 | 20.0 | 0.00 | 0.00 | 0.00 | 40 | 1030.1 |
| 20260902160803 | 67 | 233 | 5.0 | 12.0 | 0.00 | 0.00 | 0.00 | 40 | 1030.1 |
| 20260902160303 | 66 | 269 | 10.0 | 15.0 | 0.00 | 0.00 | 0.00 | 40 | 1030.1 |
| 20260902154803 | 66 | 261 | 10.0 | 23.0 | 0.00 | 0.00 | 0.00 | 41 | 1030.1 |
| 20260902154303 | 65 | 225 | 7.0 | 13.0 | 0.00 | 0.00 | 0.00 | 41 | 1030.3 |
| 20260902153803 | 65 | 255 | 11.0 | 20.0 | 0.00 | 0.00 | 0.00 | 41 | 1030.3 |
| 20260902152804 | 65 | 209 | 10.0 | 22.0 | 0.00 | 0.00 | 0.00 | 41 | 1030.3 |
| 20260902151803 | 64 | 233 | 11.0 | 20.0 | 0.00 | 0.00 | 0.00 | 42 | 1030.4 |
| 20260902151303 | 65 | 233 | 10.0 | 23.0 | 0.00 | 0.00 | 0.00 | 41 | 1030.4 |
| 20260902150803 | 65 | 225 | 12.0 | 18.0 | 0.00 | 0.00 | 0.00 | 41 | 1030.4 |
| 20260902150303 | 65 | 220 | 12.0 | 20.0 | 0.00 | 0.00 | 0.00 | 41 | 1030.2 |
| 20260902145803 | 65 | 232 | 9.0 | 13.0 | 0.00 | 0.00 | 0.00 | 41 | 1030.4 |
| 20260902145306 | 65 | 250 | 6.0 | 18.0 | 0.00 | 0.00 | 0.00 | 41 | 1030.4 |
| 20260902144803 | 65 | 261 | 7.0 | 12.0 | 0.00 | 0.00 | 0.00 | 41 | 1030.4 |
| 20260902143803 | 65 | 230 | 6.0 | 10.0 | 0.00 | 0.00 | 0.00 | 41 | 1030.4 |
| 20260902143303 | 65 | 264 | 6.0 | 14.0 | 0.00 | 0.00 | 0.00 | 41 | 1030.4 |
| 20260902142306 | 65 | 193 | 6.0 | 10.0 | 0.00 | 0.00 | 0.00 | 40 | 1030.3 |
| 20260902141803 | 65 | 209 | 11.0 | 18.0 | 0.00 | 0.00 | 0.00 | 41 | 1030.3 |
| 20260902140803 | 64 | 159 | 5.0 | 10.0 | 0.00 | 0.00 | 0.00 | 41 | 1030.3 |
| 20260902140303 | 64 | 315 | 6.0 | 10.0 | 0.00 | 0.00 | 0.00 | 42 | 1030.1 |
| 20260902135803 | 63 | 263 | 3.0 | 7.0 | 0.00 | 0.00 | 0.00 | 42 | 1030.4 |
| 20260902135306 | 63 | 270 | 5.0 | 13.0 | 0.00 | 0.00 | 0.00 | 43 | 1030.1 |
| 20260902134303 | 62 | 270 | 7.0 | 12.0 | 0.00 | 0.00 | 0.00 | 45 | 1030.4 |
| 20260902133803 | 62 | 270 | 5.0 | 8.0 | 0.00 | 0.00 | 0.00 | 45 | 1030.1 |
| 20260902133303 | 62 | 295 | 5.0 | 8.0 | 0.00 | 0.00 | 0.00 | 45 | 1030.1 |
| 20260902132803 | 61 | 280 | 10.0 | 14.0 | 0.00 | 0.00 | 0.00 | 47 | 1030.1 |
| 20260902132306 | 60 | 241 | 0.0 | 5.0 | 0.00 | 0.00 | 0.00 | 49 | 1030.1 |
| 20260902131804 | 59 | 225 | 0.0 | 3.0 | 0.00 | 0.00 | 0.00 | 50 | 1030.1 |
| 20260902130803 | 58 | 225 | 6.0 | 9.0 | 0.00 | 0.00 | 0.00 | 49 | 1030.1 |
| 20260902125803 | 57 | 225 | 6.0 | 8.0 | 0.00 | 0.00 | 0.00 | 51 | 1030.1 |
| 20260902125305 | 56 | 246 | 6.0 | 8.0 | 0.00 | 0.00 | 0.00 | 52 | 1029.9 |
| 20260902124803 | 56 | 180 | 6.0 | 8.0 | 0.00 | 0.00 | 0.00 | 52 | 1029.8 |
| 20260902124303 | 57 | 276 | 6.0 | 8.0 | 0.00 | 0.00 | 0.00 | 50 | 1030.1 |
| 20260902123803 | 59 | 247 | 7.0 | 9.0 | 0.00 | 0.00 | 0.00 | 47 | 1029.8 |
| 20260902122803 | 58 | 280 | 5.0 | 8.0 | 0.00 | 0.00 | 0.00 | 48 | 1029.8 |
| 20260902122305 | 57 | 306 | 6.0 | 8.0 | 0.00 | 0.00 | 0.00 | 50 | 1029.8 |
| 20260902120803 | 57 | 270 | 5.0 | 14.0 | 0.00 | 0.00 | 0.00 | 50 | 1029.8 |
| 20260902120303 | 56 | 264 | 9.0 | 15.0 | 0.00 | 0.00 | 0.00 | 52 | 1029.8 |
| 20260902115803 | 56 | 225 | 7.0 | 8.0 | 0.00 | 0.00 | 0.00 | 52 | 1029.6 |
| 20260902114803 | 56 | 247 | 2.0 | 7.0 | 0.00 | 0.00 | 0.00 | 53 | 1029.6 |
| 20260902114303 | 55 | 270 | 2.0 | 7.0 | 0.00 | 0.00 | 0.00 | 56 | 1029.5 |
| 20260902113803 | 55 | 232 | 5.0 | 9.0 | 0.00 | 0.00 | 0.00 | 56 | 1029.6 |
| 20260902113303 | 55 | 180 | 4.0 | 8.0 | 0.00 | 0.00 | 0.00 | 56 | 1029.4 |
| 20260902112803 | 54 | 136 | 3.0 | 5.0 | 0.00 | 0.00 | 0.00 | 58 | 1029.4 |
| 20260902112305 | 53 | 180 | 6.0 | 9.0 | 0.00 | 0.00 | 0.00 | 59 | 1029.6 |
| 20260902111804 | 53 | 225 | 6.0 | 10.0 | 0.00 | 0.00 | 0.00 | 59 | 1029.8 |
| 20260902111303 | 53 | 227 | 6.0 | 8.0 | 0.00 | 0.00 | 0.00 | 59 | 1029.4 |
| 20260902110804 | 53 | 135 | 4.0 | 6.0 | 0.00 | 0.00 | 0.00 | 60 | 1029.4 |
| 20260902110303 | 53 | 203 | 7.0 | 7.0 | 0.00 | 0.00 | 0.00 | 61 | 1029.6 |
| 20260902105306 | 53 | 225 | 3.0 | 5.0 | 0.00 | 0.00 | 0.00 | 62 | 1029.4 |
| 20260902104303 | 55 | 229 | 4.0 | 6.0 | 0.00 | 0.00 | 0.00 | 60 | 1029.4 |
| 20260902103303 | 56 | 45 | 6.0 | 6.0 | 0.00 | 0.00 | 0.00 | 57 | 1029.2 |
| 20260902102804 | 56 | 45 | 3.0 | 7.0 | 0.00 | 0.00 | 0.00 | 57 | 1029.4 |
| 20260902102307 | 56 | 90 | 2.0 | 5.0 | 0.00 | 0.00 | 0.00 | 58 | 1029.4 |
| 20260902101804 | 56 | 157 | 0.0 | 3.0 | 0.00 | 0.00 | 0.00 | 59 | 1029.4 |
| 20260902101303 | 56 | 180 | 2.0 | 5.0 | 0.00 | 0.00 | 0.00 | 59 | 1029.4 |
| 20260902100803 | 55 | 225 | 6.0 | 8.0 | 0.00 | 0.00 | 0.00 | 60 | 1029.6 |
| 20260902100303 | 55 | 225 | 6.0 | 7.0 | 0.00 | 0.00 | 0.00 | 60 | 1029.4 |
| 20260902095803 | 55 | 225 | 1.0 | 2.0 | 0.00 | 0.00 | 0.00 | 61 | 1029.6 |